Theta_e
335 328 329 332 328 328 327 330 335 334 332 330 327 327 327 326 322 324 321 319 319 315
333 335 331 333 334 330 333 332 333 331 329 326 324 323 324 321 321 321 320 320 318 315
334 333 332 333 332 332 333 332 330 328 326 323 321 321 321 319 319 319 317 315 316 315
335 333 333 332 332 333 333 331 326 324 322 320 319 319 320 318 317 315 315 315 314 313
334 332 332 332 332 332 329 327 324 321 319 317 317 316 315 313 313 312 311 311 312 310
332 331 331 332 331 327 325 322 319 319 317 315 314 313 313 313 312 311 310 310 309 309
330 330 330 328 324 319 320 318 317 316 315 314 313 313 312 311 311 310 309 309 308 309
329 329 327 322 319 318 316 315 315 315 315 315 314 310 311 310 309 309 308 309 309 310
328 325 321 318 315 314 313 313 316 315 314 312 309 300 302 305 311 311 310 309 309 310
325 320 318 314 314 310 312 314 313 315 314 313 309 301 300 300 312 312 310 309 310 308
322 319 316 313 308 309 311 312 313 314 314 312 306 300 299 300 311 313 311 309 308 307
322 318 317 310 306 309 311 313 313 313 312 310 307 300 299 301 309 310 310 310 306 305
320 317 315 308 306 310 314 312 311 310 310 306 307 299 298 301 310 309 308 309 308 298
318 313 309 308 308 310 312 311 310 308 308 308 308 304 297 298 308 307 307 308 307 305
Wind_Speed
13 11 11 12 9 8 7 6 7 5 5 5 4 4 4 2 5 3 4 5 6 8
15 13 11 13 9 7 6 7 7 6 5 5 5 4 3 5 5 4 4 3 5 7
16 15 12 12 12 10 8 7 8 7 6 5 5 4 4 1 4 4 4 5 5 6
15 16 14 13 12 12 11 10 8 7 6 5 5 4 3 2 3 4 5 5 6 6
16 16 15 14 13 12 11 9 8 7 5 5 6 4 3 4 5 5 5 6 6 8
17 17 16 14 13 12 9 10 9 8 6 5 6 4 4 4 5 5 6 6 7 7
19 18 17 15 15 12 10 9 9 7 8 7 5 5 3 4 4 5 5 5 6 6
18 17 16 16 11 11 10 9 7 9 9 7 5 4 4 4 4 4 4 4 4 6
18 17 15 14 13 15 9 11 11 9 10 7 6 7 6 6 3 3 3 4 5 4
18 17 15 14 15 11 10 10 10 10 8 8 8 6 4 3 2 2 4 5 5 6
19 18 16 15 11 12 10 10 11 10 9 9 8 6 3 5 2 1 3 5 5 6
18 19 19 15 13 11 12 11 11 10 10 9 10 5 3 8 5 3 3 3 6 7
16 19 18 14 13 10 11 11 10 10 9 8 9 6 3 6 2 3 1 4 5 5
15 15 15 13 10 9 12 12 11 11 9 9 8 8 3 3 5 2 2 2 2 6
Wind_Direction
178 182 181 192 174 189 180 171 162 147 133 111 82 39 19 358 339 30 12 10 354 320
181 189 186 183 171 169 165 149 156 147 125 91 66 34 344 37 347 335 357 343 5 320
180 184 180 172 185 169 164 155 157 144 121 105 79 24 331 338 74 348 358 337 347 339
181 180 174 175 173 172 164 163 161 139 131 110 80 55 49 45 14 359 355 359 355 343
180 176 175 177 168 158 163 160 145 136 126 102 92 86 50 28 17 8 356 355 346 343
174 172 176 167 157 153 155 153 134 131 141 116 92 84 76 32 24 10 350 345 345 344
171 173 166 156 157 150 139 151 161 143 119 123 128 97 71 45 12 349 345 343 341 351
169 165 155 158 144 138 156 142 134 145 133 134 144 87 44 31 13 2 351 4 351 57
165 155 153 145 151 141 149 159 165 143 146 154 99 91 54 339 42 60 51 21 18 336
165 158 150 141 151 132 164 158 152 150 151 132 117 126 114 303 134 49 26 38 13 350
167 162 150 145 145 148 152 161 157 157 144 140 113 132 145 256 161 113 74 44 32 11
161 163 156 155 149 158 164 158 153 148 150 144 132 140 207 263 186 128 104 80 57 6
159 164 157 152 145 181 158 155 148 144 145 109 128 157 206 284 180 144 172 195 141 99
156 148 147 137 153 172 159 147 142 141 141 151 147 147 175 321 294 1 272 354 353 92